ECMWFNIL_925_spd_000.txt.gz
Wind_Speed
29 31 30 29 28 27 28 27 26 25 24 22 20 18 17 15 14 14 13 12 13 13 12 10 9 10 9 9 9 11 12 12 12 10 9 9 8 8 8 8 7 6
29 33 32 30 29 29 29 28 27 26 25 22 21 20 18 17 16 14 13 12 13 13 12 10 9 9 9 8 8 9 10 10 10 9 9 9 8 7 7 7 8 7
30 33 33 31 30 31 31 29 27 27 26 24 23 21 19 18 17 14 12 11 12 13 13 11 10 9 8 7 6 7 7 7 7 7 6 7 7 7 6 6 6 6
31 31 33 32 30 32 32 31 29 28 27 26 25 23 21 20 18 15 13 11 11 12 13 12 11 9 7 5 5 5 5 4 4 4 3 4 5 5 5 4 4 4
29 29 32 33 30 31 32 31 31 30 29 28 26 25 22 21 20 17 14 12 11 11 12 12 11 9 7 5 4 4 4 3 2 2 0 1 2 2 3 3 2 2
30 27 32 35 33 32 32 32 32 31 30 28 27 26 24 22 21 18 16 14 12 12 11 12 11 9 7 6 5 4 3 3 3 3 3 2 1 1 1 0 1 1
31 27 32 35 35 33 32 32 32 32 31 29 28 27 25 23 21 19 17 14 13 12 11 11 11 10 9 7 7 7 6 5 6 5 5 5 5 4 4 3 2 1
30 30 33 34 35 35 35 34 34 34 32 30 30 28 25 23 22 20 17 14 13 12 10 10 10 9 9 8 8 9 8 8 8 8 8 8 8 8 7 6 5 4
31 31 30 30 32 32 32 32 32 34 35 33 31 29 27 24 21 20 18 15 13 12 10 9 9 9 9 8 8 9 10 11 11 11 10 10 11 11 10 9 8 7
31 29 26 27 28 23 23 26 26 29 32 34 33 30 28 25 23 20 18 16 14 13 12 11 10 10 10 9 9 10 11 12 13 13 13 13 14 13 13 13 12 10
30 29 25 22 17 11 11 19 22 24 27 30 31 31 30 27 24 22 19 18 16 15 14 14 13 13 13 13 13 12 12 13 14 15 15 16 16 16 15 15 15 13
24 25 23 21 18 13 9 10 12 14 18 23 22 20 23 25 24 23 21 19 17 16 16 16 16 16 16 17 18 17 17 16 16 17 18 18 18 18 17 17 17 15
20 18 16 17 19 18 15 13 11 9 12 19 17 13 15 18 17 18 19 19 19 18 17 17 17 17 17 17 19 20 20 20 20 20 20 21 21 21 20 19 18 17
18 17 15 15 16 15 15 18 17 13 13 16 17 17 17 15 13 14 17 19 19 19 19 19 19 19 18 18 18 19 20 20 22 24 25 25 24 24 23 21 20 19
17 16 17 17 19 17 15 18 20 19 17 16 17 19 20 20 19 17 18 20 20 20 21 19 19 19 20 18 18 19 20 21 22 24 27 29 28 27 25 23 22 20
16 16 16 14 15 17 21 24 25 25 23 19 18 18 17 20 22 20 19 20 19 19 19 19 19 20 19 18 19 21 22 23 24 24 27 30 31 30 28 26 24 22
13 12 11 14 20 24 25 24 24 23 20 16 15 16 15 16 18 18 17 15 13 13 14 15 16 16 17 19 20 22 22 24 25 25 26 30 33 33 31 28 25 24
13 15 15 18 22 23 20 19 18 16 13 9 10 11 11 11 11 11 10 10 10 11 12 12 13 14 16 18 19 20 21 22 24 26 28 30 33 34 31 28 27 27
14 17 18 18 18 16 14 14 13 11 9 7 7 7 8 8 9 8 8 8 8 8 8 8 9 12 14 15 16 16 17 18 20 24 28 31 32 32 30 28 29 28
19 20 19 17 16 15 14 13 11 9 8 6 5 5 5 5 4 4 4 5 5 5 5 6 7 9 11 13 14 15 15 16 17 19 23 28 31 32 30 29 30 29
19 19 17 16 14 13 11 10 8 7 6 5 4 5 4 3 3 1 1 3 5 5 5 5 6 8 10 12 14 13 13 12 13 14 18 23 24 25 26 26 27 27
16 15 13 12 10 8 7 6 5 4 4 4 3 3 2 2 2 2 2 3 4 5 6 6 6 8 11 12 12 11 9 7 9 12 15 16 16 17 18 20 20 19
12 11 10 8 6 6 6 5 5 4 3 3 3 3 3 4 4 5 6 5 6 7 7 7 7 7 9 10 9 7 5 3 5 8 9 10 10 11 13 15 13 11
12 10 9 8 7 7 8 6 5 4 3 3 4 3 3 4 6 6 7 8 8 8 8 7 7 6 6 6 5 4 2 3 6 8 9 11 11 12 12 13 11 8
13 11 10 10 10 10 9 7 6 6 5 5 4 4 5 6 7 7 8 9 9 9 9 8 7 6 5 5 4 3 4 5 6 8 10 10 10 10 10 11 10 10
6 8 10 10 10 10 10 8 8 8 8 7 6 6 6 7 8 7 8 10 10 10 10 9 9 8 7 6 5 6 6 6 6 8 9 9 9 10 10 11 11 10

ECMWFNIL_925_spd_003.txt.gz
Wind_Speed
25 20 13 18 20 18 18 20 19 19 19 18 18 17 17 16 14 13 13 14 14 14 14 13 13 14 14 14 14 13 13 12 11 9 8 9 9 8 9 9 8 7
24 15 8 20 24 18 18 19 19 19 19 18 18 18 17 17 16 15 14 15 14 13 13 13 13 13 13 13 13 13 13 13 12 10 9 10 9 8 9 9 9 9
20 14 11 22 26 22 19 19 19 19 19 18 18 18 18 18 17 16 15 15 14 14 13 12 12 12 11 12 11 11 12 12 12 11 10 10 9 9 9 9 9 9
20 20 19 23 26 25 22 20 20 21 19 19 18 18 18 18 18 17 17 16 15 15 14 13 13 12 11 11 11 10 11 11 11 9 9 10 8 8 8 7 8 9
23 26 27 27 28 28 26 22 22 22 22 20 19 19 19 18 18 18 18 18 17 16 15 14 14 13 11 11 10 10 10 10 10 8 8 8 7 6 6 5 6 7
29 29 31 30 31 32 30 25 23 23 24 22 21 20 19 19 18 17 17 18 18 17 16 15 14 13 11 10 9 9 8 9 9 8 7 7 7 5 5 4 4 6
32 30 31 30 31 33 33 29 25 25 25 24 22 22 20 20 19 17 16 16 17 18 17 16 15 13 12 11 10 9 8 8 8 8 7 6 6 6 4 4 3 4
32 31 32 30 29 31 33 32 28 26 27 26 25 24 22 20 19 18 17 16 16 17 17 16 15 14 13 12 12 11 10 10 9 8 8 7 7 6 5 4 3 3
33 31 29 24 24 29 32 30 27 27 28 29 29 27 24 23 21 19 18 17 16 16 16 15 14 14 14 13 12 11 11 10 10 9 9 8 7 7 6 6 6 4
29 27 25 22 22 27 30 28 25 26 27 28 29 29 27 24 23 21 20 19 17 16 15 15 14 14 14 14 13 12 11 11 11 10 10 9 8 7 7 8 7 7
22 22 25 26 26 26 27 25 23 22 22 23 23 25 26 25 23 22 21 21 20 17 16 15 14 14 14 14 14 13 13 12 12 12 11 11 10 8 8 9 9 9
17 20 24 27 29 28 25 23 22 18 16 17 17 16 17 19 18 16 17 20 21 19 17 15 14 14 14 14 14 14 14 14 14 14 13 13 14 12 11 11 11 11
13 17 20 25 27 25 21 19 21 19 15 16 18 16 13 12 14 15 16 20 23 22 20 17 15 16 16 15 15 15 16 16 17 16 16 17 17 16 15 14 13 12
14 16 17 21 21 20 18 16 16 16 14 13 16 16 12 10 14 17 18 20 22 23 22 20 19 19 18 18 18 17 17 18 18 19 19 19 20 19 19 19 17 15
16 17 17 18 17 16 17 16 13 11 11 11 12 14 14 15 20 22 21 24 26 25 25 23 21 20 18 17 17 17 17 18 19 19 20 21 22 22 23 23 21 20
15 17 20 20 18 16 15 16 17 16 18 20 21 23 24 24 27 27 26 28 30 28 27 24 20 17 15 14 15 15 15 16 18 19 19 20 22 23 24 24 24 24
19 20 21 21 22 23 21 21 22 22 23 23 23 23 22 21 25 29 30 31 30 27 26 23 18 16 15 13 13 12 11 13 15 17 18 19 21 22 23 24 25 26
24 23 21 21 24 24 23 23 22 22 24 24 22 21 20 21 27 31 30 28 28 26 23 19 17 14 11 9 8 8 10 11 12 14 15 17 19 21 22 23 23 25
22 23 22 23 23 22 22 23 23 25 25 23 20 20 22 24 26 27 25 25 27 23 17 13 10 8 6 6 8 10 12 13 14 14 15 15 16 18 20 21 22 23
18 20 20 20 21 21 22 23 24 25 25 22 21 21 23 24 24 24 25 24 21 15 10 7 5 4 5 7 10 13 14 14 13 14 15 15 15 14 16 17 19 21
16 19 18 18 18 19 19 20 20 20 19 19 18 18 20 22 22 21 21 18 13 10 7 5 4 4 6 8 11 13 14 12 10 10 12 13 13 12 11 12 14 17
11 13 14 15 16 17 17 17 16 16 15 15 14 14 14 14 14 13 11 10 8 7 5 4 4 6 7 10 12 13 13 11 9 9 10 10 10 9 8 8 10 14
10 11 12 13 13 13 13 14 13 12 12 12 11 11 11 9 8 7 5 4 4 4 4 4 6 6 7 8 10 10 11 10 9 8 8 8 6 5 5 5 6 9
6 7 6 6 6 8 9 9 9 9 8 8 8 8 8 7 5 4 3 3 4 4 5 6 6 6 6 6 7 7 8 8 7 6 5 4 2 1 1 2 4 6
4 6 7 6 4 5 7 8 8 7 5 5 6 5 5 5 4 3 3 4 6 7 7 8 7 7 6 4 4 4 5 5 4 3 2 1 2 3 5 5 5 6
4 4 8 10 8 8 9 9 8 6 5 4 4 4 3 3 3 2 2 2 5 7 9 9 8 7 5 4 3 3 3 3 3 3 2 3 4 4 5 5 4 4

ECMWFNIL_925_spd_006.txt.gz
Wind_Speed
15 13 12 12 11 12 14 15 15 13 12 12 12 12 11 10 9 9 10 11 11 11 11 11 11 11 11 11 10 9 10 11 11 11 11 12 12 12 13 13 12 12
17 14 11 9 9 11 12 13 13 13 12 13 13 12 12 11 10 10 11 12 12 13 13 13 13 13 12 12 11 11 12 12 12 12 12 13 13 13 13 13 13 13
17 13 9 8 6 10 13 13 12 12 12 12 13 13 13 12 11 11 11 11 12 12 13 13 12 12 12 12 12 12 13 14 14 13 13 14 13 13 13 13 13 13
17 11 7 9 6 11 17 16 14 13 12 12 13 13 14 13 13 12 12 11 10 11 11 11 11 11 12 11 10 11 13 14 14 14 15 15 14 13 13 13 13 13
21 18 15 15 12 12 19 20 17 15 13 12 12 13 13 14 13 12 12 11 10 9 9 9 9 9 10 9 9 10 11 12 12 12 13 15 14 13 13 12 13 13
24 22 22 22 19 18 20 22 20 17 14 12 12 13 13 13 13 12 12 11 10 9 9 8 8 8 8 7 7 8 8 9 10 9 10 11 12 11 11 11 12 13
23 23 26 26 25 23 21 22 23 19 16 14 12 14 14 13 14 13 12 12 11 10 10 10 9 8 8 7 6 6 6 6 7 6 6 7 8 9 9 10 10 10
24 25 31 31 28 27 24 23 23 22 20 17 14 14 15 15 15 14 13 12 13 12 11 11 11 10 8 8 7 6 5 5 5 5 4 4 5 6 6 7 7 7
27 26 33 33 27 26 25 24 24 24 23 21 18 16 17 17 16 15 15 13 13 14 13 12 11 11 10 9 8 7 6 6 5 5 5 4 4 4 5 5 5 5
33 29 31 29 22 22 24 24 24 24 24 23 22 21 20 20 19 17 17 16 14 14 14 13 12 11 10 11 11 10 9 8 7 6 6 6 5 5 5 6 6 5
35 33 28 24 22 24 25 24 23 23 24 24 23 22 20 20 20 19 18 16 15 14 14 13 12 11 11 12 14 14 13 11 10 9 8 8 8 8 7 8 8 8
30 30 25 22 24 26 25 23 22 22 23 24 23 22 19 17 16 16 14 12 11 12 12 11 11 11 12 13 14 16 16 14 13 12 11 11 10 11 10 10 11 11
25 25 23 20 22 25 23 21 21 21 22 23 23 22 20 18 16 14 13 9 7 8 10 11 13 14 15 14 14 17 18 18 16 15 14 13 13 13 13 13 13 13
23 22 21 19 20 23 23 21 20 19 18 19 20 20 19 19 17 13 13 10 8 7 10 15 18 17 17 17 17 18 18 18 17 17 15 15 16 16 16 16 16 16
21 21 20 19 18 20 22 22 21 19 16 15 18 19 20 19 14 9 12 12 8 8 12 17 20 19 17 16 16 16 15 14 15 15 16 16 16 17 17 18 19 19
20 20 21 21 21 22 24 24 22 20 19 18 21 22 23 21 16 15 18 17 13 13 17 21 23 23 19 16 14 13 12 11 11 12 13 14 14 15 17 18 19 20
19 20 22 24 25 26 27 26 24 23 22 22 25 25 24 22 21 24 26 24 21 22 26 27 27 25 20 16 14 11 8 7 7 8 9 10 12 13 15 16 17 17
18 19 20 21 20 20 22 23 22 22 23 25 28 27 23 21 22 25 26 26 27 27 27 27 25 20 16 12 8 4 4 4 5 6 7 9 11 12 14 15 16 16
14 17 18 19 20 20 20 20 20 21 25 28 27 25 21 19 21 24 25 25 26 26 25 23 18 14 10 6 3 2 5 6 5 5 5 5 6 8 10 12 13 14
10 14 16 18 20 21 21 22 23 23 24 25 23 20 18 17 19 21 22 23 22 22 21 19 15 11 8 5 0 5 6 6 5 5 6 6 6 6 6 6 8 9
10 13 14 16 18 18 20 22 23 22 21 21 20 19 18 17 18 19 19 19 18 17 16 15 12 10 7 3 2 4 6 7 8 8 9 9 10 10 9 8 7 6
7 11 14 16 17 16 17 19 21 21 20 19 20 20 18 17 17 17 17 15 14 13 12 11 11 9 5 2 1 3 5 6 9 10 11 11 11 10 10 10 8 6
8 7 10 14 16 16 16 18 19 20 20 20 20 19 17 16 15 15 14 12 11 12 12 12 10 8 6 4 2 1 3 5 7 8 9 10 10 10 9 9 7 5
8 5 3 7 9 10 11 13 14 15 16 16 17 16 14 13 13 13 13 13 13 13 13 11 10 9 7 5 3 2 3 4 5 6 6 6 7 7 7 6 5 3
9 6 2 4 8 10 11 12 13 14 14 15 16 16 17 16 15 15 15 15 14 13 13 12 11 9 7 5 3 3 3 4 4 4 4 3 3 3 3 3 3 3
8 8 3 3 7 11 13 14 14 14 15 16 16 17 17 17 16 16 16 15 14 13 12 11 10 8 7 5 3 3 3 3 3 3 2 1 1 1 2 3 4 5

ECMWFNIL_925_spd_009.txt.gz
Wind_Speed
15 13 12 11 9 8 8 7 7 7 7 8 8 7 7 6 4 4 5 5 4 4 5 6 8 9 10 10 9 10 12 12 13 13 13 12 12 12 12 12 13 14
17 15 14 13 11 10 9 7 7 7 6 7 7 6 6 5 4 4 5 5 4 4 5 6 8 9 9 8 8 9 11 12 13 12 12 12 13 13 13 13 13 14
16 14 13 12 11 9 7 8 9 8 6 6 6 5 5 4 4 5 6 5 5 5 6 6 7 7 7 7 9 10 12 12 12 12 13 13 13 13 13 14 14 16
16 13 11 13 13 9 6 8 10 9 8 6 5 6 6 5 4 5 6 6 6 6 6 7 7 7 8 8 9 11 12 12 12 12 13 13 13 13 14 14 15 16
15 14 13 13 15 11 5 6 8 9 10 8 6 6 7 7 6 5 6 6 6 7 7 7 7 8 8 8 9 10 11 11 11 11 11 12 12 12 13 13 14 15
18 19 17 14 15 13 7 10 10 10 12 10 8 7 7 8 8 6 6 6 6 6 6 6 6 6 7 7 8 9 9 10 10 10 10 10 10 10 10 11 11 12
22 24 21 16 15 14 14 16 14 10 12 13 11 9 7 7 9 8 8 7 6 5 5 5 4 5 5 5 6 6 7 8 8 8 8 9 9 9 9 10 10 9
22 23 22 18 16 15 18 19 14 12 14 15 14 13 10 8 8 9 9 8 7 6 5 5 5 4 4 4 4 3 3 4 5 5 6 6 7 8 8 9 8 8
18 19 22 20 19 20 19 18 15 14 15 16 16 15 13 12 10 10 10 9 9 8 7 6 6 5 4 4 3 3 2 2 2 3 4 4 5 6 6 7 7 7
15 17 23 23 22 23 22 19 17 15 14 16 17 16 16 15 14 13 12 11 11 10 9 8 6 6 6 6 5 5 5 5 6 6 6 5 5 5 5 6 7 7
18 19 24 24 22 22 21 19 17 16 15 16 17 18 18 17 16 15 14 13 12 10 8 7 6 6 5 4 4 4 5 7 8 9 10 9 9 8 7 7 7 8
22 23 24 23 20 20 19 18 18 16 15 17 18 20 20 18 17 16 16 15 13 10 8 6 4 2 2 2 3 4 6 9 11 12 12 12 12 11 11 10 11 10
23 24 24 23 22 21 19 18 19 17 15 17 19 20 20 19 18 17 16 14 12 10 8 7 4 0 2 2 4 6 8 12 13 13 14 14 14 13 13 13 13 14
23 23 24 24 24 24 22 20 18 17 16 17 19 20 20 19 18 18 17 13 12 10 9 9 7 4 5 6 7 8 10 13 13 13 14 15 15 15 16 16 16 16
24 23 23 23 25 27 26 22 19 18 18 19 20 21 20 19 18 19 18 14 10 8 7 7 8 6 8 10 10 8 11 13 12 12 12 14 15 16 17 17 17 17
21 20 22 23 24 25 25 23 22 22 21 20 21 21 20 20 19 19 20 14 5 8 11 11 12 12 11 11 11 11 14 15 14 14 13 13 14 15 15 15 16 17
17 18 21 24 25 24 24 24 24 24 23 22 22 21 20 19 18 20 23 18 16 22 23 19 19 20 19 18 16 14 15 15 14 13 12 12 13 13 13 14 15 16
11 14 17 21 24 26 23 22 23 25 26 25 25 25 24 22 23 27 28 24 24 28 27 23 21 20 22 23 18 14 11 10 10 10 11 12 12 12 12 13 14 14
6 9 12 15 18 19 18 19 23 27 28 29 30 29 28 27 29 31 31 28 25 24 25 25 24 22 22 21 15 9 7 6 7 8 9 8 8 8 8 9 10 11
5 7 10 12 13 15 15 19 25 29 29 29 29 29 29 30 31 31 30 27 23 23 25 26 24 22 20 16 11 8 6 4 4 4 3 2 1 1 1 2 4 5
3 7 10 11 12 14 16 19 24 27 27 27 27 28 29 31 32 31 28 24 22 23 26 25 23 20 17 14 12 10 7 6 6 5 5 5 4 4 4 4 3 3
4 4 9 12 15 15 17 20 24 25 23 22 24 27 30 31 30 27 25 23 22 22 23 22 20 18 17 17 14 11 9 8 6 6 6 6 6 6 6 5 5 5
12 6 4 11 17 19 19 21 24 25 23 19 20 24 27 28 27 25 23 23 22 21 20 19 17 18 20 18 14 11 10 8 6 6 6 6 6 6 6 6 6 6
16 13 7 5 11 18 22 23 24 25 23 21 21 21 21 23 23 22 21 21 21 20 19 19 20 22 21 17 14 12 10 9 7 7 6 6 6 6 6 6 6 6
16 15 11 7 6 10 16 19 20 21 21 21 21 18 17 21 22 20 19 18 17 18 20 22 23 23 19 16 14 13 11 10 9 7 7 6 5 5 6 6 6 5
15 15 14 10 7 6 7 9 13 15 16 18 20 19 20 22 23 20 18 17 17 18 21 22 21 20 17 15 14 13 12 11 9 8 7 6 6 6 7 7 7 6

ECMWFNIL_925_spd_012.txt.gz
Wind_Speed
10 8 8 7 7 8 9 9 9 9 8 8 10 10 9 9 8 9 9 9 9 8 8 7 8 7 7 6 6 6 7 8 8 7 7 7 6 6 5 5 6 6
14 11 8 8 8 9 11 11 11 10 8 7 9 9 9 8 8 8 9 9 9 9 9 8 8 7 6 6 6 6 7 7 7 6 6 6 5 6 6 6 7 7
15 11 10 10 10 11 13 13 13 11 8 7 8 8 7 7 8 8 9 9 9 9 9 8 8 7 6 6 6 7 7 7 6 6 6 6 6 6 6 6 7 7
15 13 12 11 12 12 12 13 15 13 9 7 8 7 7 7 8 8 8 9 9 9 9 9 8 7 7 7 7 7 7 7 7 6 7 6 6 6 6 6 7 7
17 16 14 12 12 12 11 12 14 13 9 7 7 7 7 7 7 8 8 8 9 9 9 9 8 8 8 8 8 8 8 8 7 7 7 7 7 7 6 6 7 7
19 18 16 14 13 13 11 11 12 13 10 9 7 6 7 8 8 8 8 9 9 9 9 9 8 8 8 8 8 8 8 8 8 7 7 7 7 7 6 7 6 6
21 19 16 14 13 13 12 10 10 10 10 9 8 7 7 8 8 8 9 9 9 9 9 9 8 8 8 8 8 8 7 7 7 6 7 7 6 6 6 6 5 5
21 18 15 14 14 12 10 9 9 9 9 9 9 7 7 7 8 9 9 9 9 9 9 9 8 8 7 7 7 7 7 6 6 6 6 6 6 6 5 5 4 4
18 16 15 14 13 11 8 7 8 8 8 9 9 8 8 7 8 9 9 9 8 8 8 8 8 8 7 7 7 7 6 5 5 5 5 5 5 5 5 5 4 4
16 16 15 14 13 12 9 7 8 8 7 7 8 9 9 9 9 9 10 10 9 9 8 8 8 8 7 6 6 5 5 5 4 4 4 4 4 4 4 5 4 4
14 14 15 14 13 12 10 8 7 7 6 6 7 8 9 10 10 10 11 11 10 10 9 9 8 8 7 7 6 5 5 4 4 4 4 4 4 4 4 4 5 5
13 13 14 14 13 12 11 8 7 7 7 7 8 8 8 10 10 11 11 11 11 11 10 10 9 8 8 7 6 5 4 4 3 3 4 4 5 5 6 6 6 6
12 13 13 12 12 12 11 9 8 9 10 9 9 8 9 10 11 12 12 12 12 12 12 11 11 10 9 7 6 5 4 2 1 2 3 4 5 6 6 7 8 8
10 12 13 13 12 12 11 10 9 9 10 10 10 9 9 10 12 13 13 13 14 14 14 14 12 11 9 8 5 4 3 3 2 2 3 4 6 7 8 8 9 9
8 9 11 12 13 12 11 10 10 10 10 10 11 10 10 10 11 13 14 14 15 15 16 17 16 13 12 10 7 4 2 3 4 4 5 6 7 8 8 9 9 10
7 8 9 11 12 12 11 10 11 12 11 11 12 12 11 11 12 14 15 16 16 15 17 19 20 18 17 15 12 6 2 3 5 5 6 7 8 10 10 9 9 9
5 7 8 9 10 11 11 11 12 13 13 13 13 13 13 14 15 16 17 17 17 17 17 19 20 19 19 21 19 14 9 9 8 6 7 8 8 10 11 9 8 8
4 5 7 8 8 9 10 11 13 14 14 13 14 15 16 15 16 18 18 18 18 17 19 20 20 20 21 22 22 21 21 17 11 7 8 9 9 9 10 9 8 8
3 4 6 7 7 8 9 11 13 14 15 15 15 16 18 18 19 20 20 19 18 18 19 20 22 24 24 23 23 24 24 19 11 8 9 9 8 8 7 6 5 5
3 4 6 7 7 8 9 11 13 14 15 15 14 15 17 19 20 21 21 19 19 19 19 18 19 21 22 22 25 25 22 17 12 10 9 8 8 7 5 4 3 2
5 3 5 6 7 8 10 11 12 14 15 14 14 15 16 17 19 21 20 20 20 20 19 18 18 20 20 21 23 23 20 16 12 11 9 7 7 6 4 3 2 2
8 6 5 6 7 9 10 11 12 14 14 13 13 14 15 16 18 19 20 21 20 19 19 18 17 20 22 23 23 22 19 16 13 11 10 8 7 6 5 4 4 3
9 8 7 6 7 9 10 12 13 13 13 13 13 14 15 16 17 17 18 19 18 17 17 16 16 20 22 23 24 23 20 17 14 13 11 10 9 7 6 6 6 6
10 10 9 8 7 8 9 11 13 13 13 13 14 15 16 16 16 17 18 18 17 16 15 14 15 18 22 24 25 25 22 17 14 13 11 10 10 8 7 7 8 7
11 11 11 10 9 9 9 10 11 13 14 14 14 15 16 17 16 17 18 20 20 17 15 16 16 20 24 26 26 26 22 16 14 13 12 11 10 9 8 8 8 7
12 12 12 12 12 11 10 9 9 11 13 15 16 16 16 16 16 17 17 20 22 21 20 20 21 24 27 27 26 26 22 16 13 13 13 11 11 10 10 9 9 8

ECMWFNIL_925_spd_015.txt.gz
Wind_Speed
9 9 8 8 7 6 5 5 6 6 7 7 7 7 6 6 6 6 6 6 6 7 7 8 8 8 8 8 8 9 9 9 10 9 10 10 9 8 8 7 6 6
10 9 9 8 8 7 6 6 7 6 7 7 8 7 6 6 6 6 7 7 7 8 7 8 8 8 8 8 8 8 8 9 9 9 9 9 9 9 9 8 7 6
11 11 11 10 9 9 8 8 7 7 8 8 8 8 7 7 7 7 7 8 8 8 8 8 8 8 8 8 8 8 8 9 9 9 10 9 9 9 9 8 8 7
12 12 12 11 11 10 9 8 8 8 9 9 9 9 9 8 8 7 8 8 9 9 8 8 8 8 8 8 8 8 8 9 9 9 10 10 9 9 9 8 8 8
13 13 13 12 12 11 9 9 9 10 9 9 10 10 9 9 9 8 8 8 9 9 8 8 8 8 8 8 8 8 8 9 9 9 9 10 9 9 8 8 8 8
13 13 13 13 13 12 10 9 10 11 11 10 10 10 9 10 9 8 8 8 8 9 9 9 8 8 8 9 9 9 9 9 9 9 10 10 9 9 8 8 8 8
12 13 13 13 13 12 11 10 10 13 14 10 9 10 10 10 9 9 9 8 9 9 9 9 9 9 9 9 9 9 9 9 9 9 10 9 9 9 8 7 7 7
11 13 14 14 14 12 12 12 11 13 14 11 9 10 10 10 10 9 9 9 9 9 9 9 9 9 8 9 9 10 9 8 8 8 9 9 8 8 7 6 6 6
11 12 13 14 13 12 11 12 12 12 12 11 10 10 9 9 10 10 10 10 10 10 10 10 10 9 8 9 9 10 9 8 7 8 8 8 7 7 7 6 5 5
12 12 13 13 12 12 11 12 12 12 12 11 11 10 9 9 10 10 10 10 10 10 10 10 10 9 9 9 9 9 9 8 8 8 8 7 7 6 7 7 6 5
11 11 11 11 12 12 12 13 13 12 11 11 10 11 10 9 10 11 11 11 10 10 11 10 10 10 9 9 9 8 8 8 8 8 7 7 6 6 6 6 6 5
10 10 10 11 12 11 11 12 13 13 12 12 11 11 11 10 11 11 11 12 12 11 12 12 11 11 11 10 10 9 8 8 8 8 8 7 6 6 6 6 6 6
11 11 11 12 12 10 10 11 12 13 13 12 11 11 11 11 12 12 12 12 13 13 13 13 13 13 12 12 12 11 10 9 8 8 7 7 7 6 7 7 7 7
10 11 11 11 10 9 9 10 11 12 12 12 12 12 12 12 12 13 13 13 13 14 14 14 14 14 14 14 13 12 11 10 9 8 7 7 7 6 6 7 7 7
7 8 8 9 9 9 9 9 9 10 11 12 12 12 13 13 13 13 13 14 14 14 14 15 15 15 15 15 15 14 12 10 8 8 7 6 6 4 4 5 7 7
4 5 6 7 8 9 9 8 9 9 9 10 12 13 13 14 13 13 14 14 14 15 15 15 15 15 17 17 17 16 14 12 10 7 5 3 2 0 2 4 7 8
3 4 5 7 7 8 9 9 10 9 9 11 11 12 13 13 14 14 14 15 15 16 16 16 16 17 21 22 21 20 18 17 15 10 5 2 2 1 2 4 6 8
0 2 3 5 6 8 9 10 11 11 11 12 12 12 12 13 14 14 14 15 16 17 18 18 17 20 25 25 24 23 21 19 17 14 10 9 7 6 6 6 6 6
3 2 2 2 4 6 7 9 10 12 12 13 13 13 13 14 15 16 16 16 17 18 19 19 19 22 25 25 24 23 21 18 15 13 14 13 13 14 12 8 8 9
6 5 4 3 3 4 5 7 9 10 11 12 13 14 15 17 17 17 18 18 18 19 20 20 20 21 23 25 25 22 20 19 16 12 12 12 13 14 12 9 9 11
7 6 6 5 5 4 5 6 7 9 10 11 12 13 15 17 19 21 21 21 21 22 22 22 21 21 22 24 24 20 20 22 20 15 13 13 12 12 12 11 9 9
8 7 6 6 6 6 6 7 8 9 10 10 11 12 13 15 18 21 22 23 24 25 24 23 21 19 21 23 23 21 21 23 21 18 17 15 13 11 11 10 8 7
8 8 7 7 7 7 7 8 8 9 10 10 11 12 14 15 17 18 20 22 23 24 24 23 20 17 19 24 24 22 22 23 21 19 18 17 15 13 11 11 11 9
8 8 9 9 8 8 8 9 9 10 10 11 11 13 14 15 16 17 19 19 19 21 21 20 20 18 18 22 25 23 24 25 22 20 19 18 17 14 12 12 14 12
9 9 9 9 9 10 10 10 11 11 11 12 12 13 14 15 16 18 19 19 17 18 19 18 18 19 19 21 24 25 27 27 22 21 21 19 18 16 13 12 13 13
11 10 10 10 11 11 11 12 12 12 12 12 13 14 15 15 17 17 18 18 16 16 18 18 19 22 23 24 25 26 28 25 21 22 23 20 18 16 14 13 13 13

ECMWFNIL_925_spd_021.txt.gz
Wind_Speed
19 18 17 16 15 14 13 13 10 11 12 13 15 15 13 12 12 12 12 11 10 10 11 10 9 12 14 15 14 15 16 16 16 15 15 15 14 14 15 15 15 15
18 17 17 16 15 13 13 12 10 12 15 16 16 15 13 11 11 11 11 12 12 11 10 10 11 15 17 17 17 18 18 17 16 15 15 16 16 16 16 16 16 15
17 17 17 16 15 14 13 12 11 14 16 16 14 13 10 9 9 10 11 12 12 10 10 11 14 17 18 17 16 16 17 17 16 16 17 17 15 15 15 15 14 14
17 17 17 16 15 14 13 13 13 15 15 14 13 12 11 10 10 11 12 12 11 10 11 12 13 15 16 15 15 16 17 16 16 16 17 16 14 14 15 14 13 13
17 17 17 17 16 15 14 13 14 14 14 13 13 13 13 12 12 12 12 12 12 11 12 12 12 14 15 14 15 17 17 17 16 17 17 16 16 15 15 14 13 12
17 17 18 18 17 16 14 14 14 13 13 13 13 13 12 12 12 12 12 13 12 12 13 13 12 13 13 13 15 17 17 17 17 17 17 18 17 15 15 15 15 15
17 17 17 17 16 16 15 14 13 13 13 13 13 13 13 13 12 12 13 13 12 13 14 13 12 12 13 14 16 16 16 17 18 18 19 19 17 16 17 17 16 16
17 16 16 15 15 15 14 14 14 13 13 13 13 14 13 12 12 12 12 12 13 14 13 13 13 13 14 15 16 17 17 17 18 18 18 18 17 16 15 15 15 16
17 15 14 14 15 15 14 14 14 13 13 13 14 15 13 12 12 11 12 13 13 13 13 14 14 13 14 16 15 15 16 17 17 17 16 17 17 16 14 13 13 14
18 15 14 14 15 14 12 12 12 13 14 13 13 14 13 12 11 10 12 14 14 13 14 14 13 12 15 16 13 12 16 19 18 16 15 15 16 15 13 11 10 11
18 16 15 15 15 12 10 9 9 11 13 12 12 14 12 11 11 9 11 14 13 13 14 14 12 12 14 15 12 12 16 20 18 16 14 13 14 13 11 10 8 8
17 17 17 15 14 12 10 8 8 10 11 11 11 11 9 9 12 10 10 12 13 14 15 14 12 12 13 15 13 11 14 16 16 15 13 11 12 12 11 9 8 7
15 15 16 15 13 13 11 10 9 9 10 11 11 9 9 10 11 11 11 11 12 13 14 14 13 12 12 14 13 12 13 14 15 15 11 10 12 12 10 10 10 9
13 13 15 15 13 11 10 11 11 11 9 10 10 9 11 13 11 11 12 12 12 13 12 12 13 13 13 14 13 13 13 13 14 14 12 12 12 12 12 12 11 12
11 11 11 11 11 10 9 9 12 12 11 12 11 9 12 15 13 11 13 13 12 13 13 13 13 13 14 15 14 15 15 14 14 15 14 13 13 13 14 15 14 14
10 9 8 9 10 10 9 8 9 11 10 11 10 7 9 15 14 12 13 13 13 13 14 16 15 14 15 16 15 15 16 16 15 16 17 16 17 17 16 17 17 16
9 8 7 9 9 8 7 6 6 8 7 7 8 5 4 9 11 11 11 11 11 12 13 16 18 17 17 17 16 16 17 18 18 19 19 19 20 20 19 19 19 17
6 6 4 5 7 6 4 3 4 5 5 6 8 7 6 6 7 8 9 9 10 11 11 11 15 19 20 20 18 18 19 21 21 22 22 21 21 21 21 20 20 19
9 8 7 5 3 3 2 2 3 4 4 5 7 9 10 11 10 10 10 10 11 12 12 12 13 15 19 21 21 22 23 24 24 24 24 24 24 23 23 22 22 21
19 15 13 11 9 5 2 1 1 3 4 6 7 9 11 12 13 13 13 12 11 10 11 13 13 12 16 19 20 22 23 24 25 25 25 26 26 27 26 24 24 24
22 21 18 16 14 13 10 7 6 6 5 5 7 8 9 10 11 13 14 15 14 13 12 13 13 12 14 17 20 21 21 22 25 26 26 26 26 25 24 22 21 22
20 21 20 18 17 16 14 12 11 11 10 9 7 7 9 10 11 12 13 14 16 16 17 17 17 16 16 17 20 21 20 21 24 26 27 27 25 24 23 22 21 20
16 18 19 18 17 17 16 15 14 12 12 12 11 12 11 12 13 14 14 14 15 16 18 20 21 20 21 21 21 22 23 23 24 27 28 28 26 25 24 24 24 23
13 13 14 13 13 14 15 15 15 14 14 14 14 15 15 15 16 17 17 17 17 17 18 20 21 21 22 23 23 24 25 25 26 28 29 28 27 26 25 23 23 22
11 11 11 11 12 13 13 14 15 16 16 16 16 17 18 18 18 19 20 19 19 20 20 19 20 20 20 21 22 23 24 25 26 29 29 28 27 28 27 24 22 23
12 12 12 12 13 14 14 15 15 16 17 18 19 19 19 20 20 21 22 20 19 19 19 19 20 20 20 20 21 21 22 24 26 29 30 29 29 30 28 24 23 25

ECMWFNIL_925_spd_027.txt.gz
Wind_Speed
24 23 21 18 18 19 19 19 17 16 14 12 10 9 9 9 9 9 8 7 7 7 8 8 7 6 6 7 8 9 9 9 10 9 9 9 8 8 9 11 13 13
23 21 19 17 17 16 16 15 14 14 12 11 9 8 9 10 10 9 8 7 7 7 7 8 7 7 7 8 9 9 10 9 9 10 9 9 8 8 9 10 12 12
21 19 17 16 16 15 14 13 12 12 11 11 10 9 10 10 10 9 7 6 6 6 6 7 8 8 8 9 10 10 10 9 9 9 9 9 8 8 10 10 11 12
19 17 16 15 14 14 13 12 11 11 11 11 11 11 11 10 10 9 6 6 7 6 6 8 9 9 8 9 10 10 10 9 9 8 8 8 9 10 11 11 11 12
18 16 15 15 14 13 12 11 11 12 11 11 11 11 11 10 10 9 7 7 8 8 8 8 9 8 8 9 10 10 10 10 9 9 9 11 12 13 14 13 11 11
18 16 15 14 14 13 11 10 11 12 11 11 11 10 10 10 9 9 8 8 9 10 10 10 9 9 9 9 10 11 11 10 10 11 12 14 15 15 15 14 13 11
18 16 15 14 14 12 11 10 11 12 11 10 9 8 8 8 9 9 8 8 9 10 11 11 10 10 10 10 11 11 10 10 10 12 13 14 15 14 14 14 15 14
18 17 15 14 13 12 11 11 11 12 11 8 7 7 7 7 8 8 8 7 8 10 10 10 9 9 10 10 10 10 10 10 10 11 13 13 13 12 12 14 16 16
18 17 15 14 13 12 11 12 12 11 10 7 6 7 7 7 6 7 7 7 8 9 9 9 8 8 9 10 11 10 11 11 11 12 13 12 11 11 12 13 15 17
18 17 16 14 13 13 13 12 12 11 9 7 7 7 7 6 5 6 7 7 8 9 9 8 8 8 9 11 11 10 10 12 12 12 12 11 10 11 13 14 15 16
15 16 16 15 14 14 12 12 12 11 10 9 9 9 8 7 5 5 7 8 8 8 8 7 8 8 10 11 11 10 11 12 12 12 11 11 11 11 12 13 14 14
12 13 15 16 15 13 11 12 12 11 10 10 11 11 9 8 7 6 6 8 9 8 8 8 8 8 9 10 10 10 11 12 13 12 12 12 12 11 11 12 12 13
16 15 14 14 13 11 11 12 12 11 11 12 13 12 10 10 10 9 8 8 8 9 9 9 8 8 8 9 9 9 10 13 14 14 12 12 13 12 11 11 11 12
17 15 13 11 10 10 11 11 11 12 12 12 13 12 10 9 9 10 10 9 8 9 10 10 8 8 8 8 8 9 11 13 14 14 14 13 14 14 13 13 13 13
15 13 11 10 12 12 11 10 10 11 11 11 12 12 10 8 8 10 12 12 11 11 12 11 9 9 9 10 10 10 12 14 15 14 15 15 15 15 15 15 15 15
12 11 10 10 11 11 10 9 9 9 10 10 10 10 9 7 7 10 11 11 12 13 14 13 12 10 10 11 12 12 12 14 16 16 16 16 17 16 16 17 16 16
12 10 9 8 8 9 10 9 7 6 6 7 7 8 7 6 7 10 12 12 12 14 15 15 14 13 12 12 13 14 14 14 16 17 18 18 18 18 18 19 19 18
13 11 11 10 10 10 10 8 7 7 7 6 5 3 2 2 2 6 9 10 12 14 16 17 17 16 15 14 14 15 16 17 18 19 20 20 20 20 20 20 21 22
18 16 14 13 13 12 11 10 9 9 9 7 6 5 4 3 2 1 2 4 6 9 12 15 18 19 19 19 18 17 18 19 20 21 21 22 23 23 22 22 22 23
25 23 22 20 18 16 15 14 12 11 11 9 7 6 5 4 4 3 1 0 2 3 5 8 10 14 16 18 20 21 21 22 23 23 23 24 25 26 26 26 25 26
27 26 25 23 21 19 18 17 16 15 14 12 9 8 7 6 5 5 4 3 2 3 5 5 6 7 10 12 15 17 19 22 24 26 27 27 27 28 29 29 29 29
26 25 24 23 23 22 21 20 17 16 14 12 10 9 8 6 6 5 5 4 4 4 5 5 5 5 8 9 11 13 14 17 19 22 25 28 30 31 31 31 32 32
23 23 23 22 21 22 24 23 20 17 15 13 11 10 9 8 7 7 7 7 6 6 6 6 6 6 7 9 10 12 14 15 16 18 20 23 26 29 30 32 32 32
22 21 21 21 20 21 22 21 20 19 17 15 13 12 12 11 10 9 9 9 8 8 8 8 8 8 8 9 10 11 12 14 16 18 19 21 22 24 25 28 30 30
22 20 20 20 19 18 18 18 18 18 17 15 14 13 12 12 11 11 10 10 10 9 10 10 11 10 10 11 11 12 13 13 14 17 19 21 22 23 23 25 27 28
18 18 17 17 16 15 15 14 15 15 15 14 13 12 11 10 11 11 11 11 11 11 11 11 12 12 12 12 12 12 13 14 15 16 18 21 23 25 25 25 26 28

ECMWFNIL_925_spd_030.txt.gz
Wind_Speed
22 22 21 20 19 18 17 16 13 12 11 10 9 9 8 6 5 4 3 3 3 5 8 8 7 7 6 7 9 9 9 8 9 9 9 10 10 9 10 12 14 15
22 21 20 19 19 18 17 15 13 11 10 10 9 8 7 7 6 5 4 3 3 4 6 6 6 5 5 6 7 8 9 8 9 9 9 8 8 7 8 10 12 14
22 21 20 18 18 18 18 16 13 12 11 9 8 7 7 8 7 6 4 3 2 2 3 4 4 3 3 5 6 6 8 8 8 8 7 7 7 6 7 9 11 12
22 21 19 17 17 18 18 17 15 13 11 9 8 7 8 8 8 7 4 2 2 2 2 4 4 4 3 4 5 6 7 7 6 6 6 6 6 6 8 9 10 11
22 20 18 17 17 18 18 17 15 13 11 9 8 7 8 8 8 6 4 2 3 3 3 4 5 4 3 4 5 6 6 6 5 6 6 7 7 7 9 10 10 11
20 19 17 17 17 17 17 16 15 13 12 10 9 8 8 8 7 6 3 2 4 5 4 4 4 3 3 3 4 4 5 5 5 5 6 7 8 9 9 9 10 10
20 18 17 16 16 15 15 15 14 13 12 10 9 8 8 8 7 5 4 4 6 6 5 5 4 4 4 4 4 4 4 5 5 6 7 8 9 10 9 9 8 7
20 19 18 17 16 15 14 14 13 13 12 10 9 8 8 8 7 6 5 5 6 6 6 5 4 4 5 5 5 5 4 5 6 8 9 10 10 9 9 8 8 6
21 19 18 17 16 14 13 12 13 13 12 10 8 8 8 8 7 6 5 5 5 6 6 5 4 4 4 5 5 5 4 4 6 8 8 9 9 8 7 8 8 7
20 19 17 16 15 13 12 12 13 13 11 9 7 7 8 8 7 6 5 5 5 6 5 5 4 4 4 5 6 5 4 4 5 7 8 8 8 7 7 8 8 9
18 18 15 14 13 12 11 12 12 11 10 8 7 7 7 6 6 6 5 5 5 5 5 4 3 3 3 4 6 5 4 4 6 7 8 7 6 6 7 9 9 10
15 15 14 13 13 12 12 12 12 10 9 8 7 7 7 6 5 5 5 6 6 5 5 4 2 3 3 4 5 6 5 5 7 8 7 7 6 6 8 9 10 10
14 12 11 12 13 12 11 11 11 9 8 8 8 8 7 5 4 4 4 5 6 5 5 4 2 2 3 3 5 5 5 6 8 8 8 7 7 7 7 8 8 8
12 9 8 10 10 9 9 9 10 9 8 8 9 9 7 5 4 4 3 4 4 4 4 4 4 2 2 3 3 3 3 5 7 9 8 7 7 7 7 7 7 7
12 10 10 9 8 8 9 10 10 9 8 8 9 9 7 5 4 4 5 5 4 4 4 5 5 3 2 2 2 2 2 3 5 8 8 7 7 8 8 8 8 8
13 11 10 8 6 7 9 9 9 8 8 8 8 8 7 6 4 4 4 5 5 5 5 5 5 4 3 3 4 5 5 5 6 7 9 9 8 8 9 9 9 10
14 12 10 8 6 6 7 6 6 7 7 7 7 7 7 6 5 3 3 4 5 6 7 7 7 6 5 5 5 6 7 7 8 8 10 10 10 10 10 10 11 12
18 17 15 14 13 12 11 10 9 8 7 7 6 6 5 4 3 2 3 3 2 3 5 7 7 8 9 9 8 8 8 9 9 10 11 12 13 13 13 14 15 15
22 22 22 20 19 18 16 15 14 13 11 10 10 9 8 7 7 6 6 5 3 2 1 0 2 5 7 9 10 10 11 11 12 13 13 14 14 15 16 17 19 20
27 27 27 25 23 21 19 19 18 17 16 14 13 11 10 11 10 9 8 7 6 6 5 4 3 2 3 5 7 9 10 12 13 14 15 17 18 18 19 20 21 22
28 28 28 27 26 24 23 22 20 19 18 16 14 14 14 14 13 12 11 10 9 8 7 6 5 3 3 3 5 6 7 8 10 11 13 15 17 19 21 23 23 24
24 24 24 22 22 23 24 24 22 20 18 16 14 14 14 14 14 14 14 12 11 10 8 8 7 6 5 5 6 6 7 8 9 11 12 13 14 15 17 19 21 23
23 22 21 18 17 18 20 20 20 20 19 17 15 13 13 14 14 14 14 13 12 11 10 10 10 8 7 7 7 7 8 9 10 12 13 14 16 16 16 17 17 18
22 21 20 18 16 15 15 13 12 13 15 16 16 15 14 13 13 12 12 12 12 11 11 10 10 10 10 9 9 9 9 9 10 12 13 15 16 17 18 17 17 17
20 19 18 18 16 15 14 11 9 8 9 11 13 14 13 13 12 11 11 11 11 10 10 10 10 10 10 10 11 11 11 11 12 13 13 14 16 18 19 19 19 18
19 18 17 16 14 13 12 12 10 9 8 8 9 11 11 12 11 11 11 10 10 10 10 10 11 10 10 10 11 12 12 13 13 14 15 16 17 18 20 21 21 20

ECMWFNIL_925_spd_033.txt.gz
Wind_Speed
18 18 19 18 19 19 18 18 16 15 13 12 11 10 9 7 6 6 5 3 4 7 9 8 8 9 8 8 8 8 8 9 10 10 11 12 12 11 11 12 13 12
19 20 20 20 20 20 18 17 15 14 12 11 10 9 8 7 6 6 5 4 5 8 9 8 7 7 7 7 7 7 8 8 9 10 9 9 9 9 9 10 12 12
20 21 20 20 20 20 19 17 14 13 12 11 10 9 7 8 7 7 5 5 5 7 8 7 7 6 6 6 7 8 8 8 7 8 8 8 8 8 8 8 10 11
21 22 20 19 19 19 18 17 15 13 13 12 10 8 8 8 8 7 5 4 3 4 6 6 6 6 5 6 7 8 8 8 7 7 7 8 8 8 8 8 9 10
22 22 20 19 18 18 17 16 15 14 13 12 11 9 9 9 8 7 5 3 3 3 4 6 7 6 5 6 7 8 8 7 7 7 8 8 9 9 9 9 10 11
22 21 19 17 16 16 17 16 15 14 13 11 11 10 9 9 8 6 4 3 4 4 5 7 6 6 5 6 7 7 7 7 7 7 8 8 9 8 9 10 11 12
20 19 17 15 14 15 17 16 15 13 12 11 10 10 10 9 7 5 4 4 5 5 6 7 7 6 7 7 7 7 7 7 7 7 8 8 8 9 9 10 11 11
19 18 16 14 14 15 16 16 14 13 12 11 10 10 9 8 7 6 5 5 6 6 7 8 7 8 8 8 7 7 7 7 6 6 7 8 9 9 9 9 9 9
19 18 16 15 15 15 15 14 13 12 12 11 10 9 9 8 7 7 6 5 6 7 6 6 7 7 7 7 7 7 7 7 7 7 8 9 8 8 7 6 6 6
20 18 17 16 15 14 14 13 12 12 12 10 9 9 9 9 8 7 6 6 6 6 6 5 5 5 6 6 6 5 6 7 7 7 8 8 8 7 6 5 5 4
18 17 16 16 15 14 13 13 13 13 12 10 9 9 9 8 7 7 7 7 7 6 6 5 5 4 4 5 5 5 5 6 7 7 7 7 6 5 5 4 4 3
17 17 16 16 15 14 13 13 14 13 11 10 9 9 9 7 7 7 8 8 8 7 7 5 4 4 4 4 5 5 5 5 6 8 8 7 6 4 4 4 3 4
15 16 15 14 14 14 14 15 14 13 11 10 9 9 8 7 6 7 7 8 8 7 7 5 4 4 4 4 4 4 4 4 5 6 7 6 5 4 4 5 5 5
13 14 13 13 13 13 13 13 13 12 10 9 9 8 7 6 5 5 6 7 7 6 6 5 4 4 4 4 4 4 4 4 5 6 6 5 5 5 5 6 6 6
13 14 14 13 13 13 11 8 8 10 9 9 9 8 7 5 4 4 4 5 6 5 5 5 4 3 4 5 6 5 4 4 6 6 6 5 5 5 5 5 6 6
14 15 16 14 12 10 8 6 6 8 9 8 8 8 6 5 4 3 4 5 5 5 4 5 5 4 4 6 6 5 4 4 5 7 7 6 6 6 6 6 6 6
16 17 17 16 13 11 9 8 8 8 9 8 7 7 6 6 4 4 5 6 5 4 4 3 3 3 2 4 5 5 4 4 4 5 6 7 7 7 6 7 7 7
19 19 19 18 17 15 13 11 10 10 10 9 8 8 7 6 5 5 7 8 7 7 6 5 4 2 1 1 2 3 3 3 3 3 4 5 6 6 6 7 8 8
22 23 23 22 20 19 18 16 14 14 14 14 13 12 11 10 9 9 11 11 11 10 9 8 7 5 3 1 1 2 3 3 3 3 4 4 5 5 6 7 8 9
27 27 27 26 25 24 23 21 20 19 19 19 18 16 15 15 14 13 13 13 12 11 11 10 8 6 4 2 0 1 2 3 4 5 5 6 7 7 8 9 10 10
29 29 29 28 27 26 26 25 24 23 22 21 20 19 19 18 17 16 16 15 14 12 12 11 10 8 5 3 1 0 1 2 3 4 4 5 6 7 8 9 10 11
27 27 27 25 25 25 24 23 23 23 21 20 20 19 18 18 18 17 16 15 13 12 12 12 10 8 6 4 2 1 0 1 2 3 3 4 5 7 8 8 9 10
24 23 22 20 19 19 19 18 18 18 17 16 17 17 17 16 16 16 15 14 13 12 11 10 9 7 6 5 4 3 2 2 3 3 4 5 6 7 8 8 9 10
21 21 20 19 18 16 15 13 11 10 11 12 13 14 14 14 13 13 13 13 13 12 10 9 9 8 7 7 7 6 6 6 7 7 7 7 8 9 9 9 10 11
19 18 17 17 18 17 16 14 10 8 6 5 6 6 7 7 8 9 10 10 10 10 9 8 8 9 9 9 9 10 9 9 9 10 10 11 11 12 12 12 13 12
19 18 16 14 15 15 15 14 13 10 7 5 5 4 3 3 3 5 7 7 8 9 9 8 8 8 9 10 11 11 11 11 10 10 11 12 12 13 14 14 14 14

ECMWFNIL_925_spd_036.txt.gz
Wind_Speed
13 12 11 11 10 10 9 9 9 8 8 7 7 7 7 8 7 7 6 6 7 8 8 9 10 10 10 10 10 8 8 9 9 9 9 9 8 7 8 8 10 11
13 11 11 10 9 9 9 8 8 8 7 6 6 6 6 7 7 6 6 7 8 8 9 9 10 11 11 10 10 9 8 10 9 8 9 9 8 8 8 8 10 11
13 12 11 10 10 10 9 9 8 7 6 5 5 5 5 6 6 6 6 6 8 9 10 9 10 10 10 10 11 10 10 11 10 9 9 9 9 9 8 7 8 11
13 12 12 11 10 11 10 9 8 7 6 6 5 4 5 5 6 6 5 5 7 9 9 9 9 9 8 9 10 10 10 11 10 9 9 8 9 9 8 8 8 10
14 12 12 12 12 12 12 10 9 8 7 7 6 5 5 6 6 6 5 5 5 6 7 8 8 8 7 8 9 10 10 10 9 10 9 8 8 8 8 8 9 10
15 13 13 13 13 14 13 11 10 9 8 7 6 6 6 6 5 5 4 4 5 6 6 7 7 7 7 8 8 9 10 9 9 9 9 9 8 8 8 9 9 10
15 14 14 13 14 14 14 12 12 11 9 8 7 6 7 6 5 4 3 4 5 6 7 8 8 8 7 8 8 8 8 8 8 8 8 8 8 8 8 8 9 10
14 15 14 13 14 14 14 13 12 11 10 9 8 7 6 6 5 4 4 5 6 6 7 7 7 8 7 7 8 8 7 7 7 7 8 7 7 8 8 8 8 9
14 14 14 13 13 13 14 14 13 12 10 9 8 7 7 6 5 5 5 6 6 6 7 6 6 7 7 6 6 7 7 6 6 6 7 8 8 8 8 7 7 8
13 14 14 14 13 13 14 14 13 12 10 9 8 8 7 6 6 6 6 6 7 7 7 6 6 7 7 7 7 7 7 7 7 7 7 8 8 8 7 7 6 7
13 13 14 13 13 13 14 13 12 12 11 9 8 8 8 7 7 6 7 7 7 7 7 6 6 6 6 7 7 7 8 7 7 7 7 7 7 7 7 6 6 6
13 13 13 13 12 13 13 13 12 12 11 9 8 9 9 7 7 6 7 8 8 7 7 7 6 6 6 7 7 7 7 7 7 7 6 6 6 6 6 5 6 6
12 13 14 14 14 13 13 12 12 12 10 9 9 9 8 7 7 6 6 7 8 7 6 6 5 5 6 6 7 7 7 7 7 6 6 6 5 5 5 5 5 6
11 12 14 14 14 15 14 13 11 10 9 9 9 9 8 8 7 7 7 7 7 7 6 5 4 4 5 5 6 6 6 7 7 8 7 6 6 5 5 5 6 6
12 13 14 15 16 17 17 16 13 10 9 9 8 8 8 8 7 7 7 7 7 6 5 4 3 4 5 5 4 5 6 7 8 8 8 7 7 6 6 6 6 6
19 18 18 18 19 18 18 17 13 10 8 7 7 7 8 8 7 6 6 6 7 6 5 4 4 4 5 6 5 4 3 5 7 8 8 7 7 6 6 6 6 6
23 22 21 20 20 19 17 16 14 12 10 7 6 6 7 7 7 6 5 6 7 7 5 5 4 3 4 5 5 4 2 3 4 6 6 6 6 6 6 6 6 6
23 22 21 19 18 17 17 16 15 15 13 10 8 7 7 9 9 8 8 8 9 9 7 6 5 4 3 3 3 3 3 2 3 4 5 5 5 5 5 6 6 5
22 21 20 19 18 17 17 16 15 15 15 14 12 9 9 11 12 12 12 11 12 12 11 9 7 5 4 3 2 2 2 3 2 3 4 4 3 3 3 3 4 4
24 22 21 20 19 18 18 18 17 17 17 15 14 13 12 13 14 14 14 13 13 13 13 12 10 7 5 3 2 2 3 2 1 0 1 2 2 2 2 2 2 3
25 24 22 19 18 20 20 20 20 20 19 17 16 15 15 14 15 16 15 14 13 12 12 12 11 8 7 5 3 2 3 2 2 1 0 0 0 0 1 1 2 3
22 23 23 20 18 18 18 18 20 20 20 19 18 17 16 14 15 16 15 14 13 11 11 10 9 8 6 5 4 3 3 3 3 2 2 1 1 1 1 1 1 2
23 24 24 23 22 20 17 17 17 18 19 20 19 19 17 15 15 15 15 14 12 11 10 8 6 6 5 5 4 3 3 4 3 1 1 1 1 2 2 1 3 5
24 22 20 20 21 21 19 17 16 18 19 18 17 16 15 13 13 12 12 12 11 9 8 6 4 4 4 4 3 3 3 3 3 2 1 2 2 3 3 3 6 9
22 21 19 18 17 17 16 14 13 14 14 12 11 10 10 9 8 7 8 8 8 7 6 4 3 3 4 4 4 4 3 3 3 3 3 3 4 4 4 4 6 9
18 18 17 17 16 16 14 11 9 8 8 7 6 5 4 5 4 3 3 3 2 2 2 3 3 3 6 6 6 6 4 3 3 3 3 4 5 6 6 6 6 7

ECMWFNIL_925_spd_039.txt.gz
Wind_Speed
16 14 12 12 12 11 10 10 9 8 7 6 6 5 5 5 4 4 3 3 3 4 4 4 5 6 6 6 5 5 5 6 5 5 6 6 4 7 10 10 10 10
15 14 13 12 12 12 11 10 10 9 8 7 7 6 6 5 4 3 2 2 3 3 3 4 4 5 6 5 6 5 5 6 6 6 5 6 5 5 7 9 10 9
14 13 13 12 12 13 12 12 11 10 9 8 8 7 7 6 4 3 2 2 3 3 3 3 4 5 5 5 6 5 5 6 7 6 5 6 5 4 5 7 7 9
14 14 14 13 13 14 13 12 11 10 10 9 8 8 7 6 5 4 3 2 2 2 3 3 3 3 4 4 5 4 4 5 6 6 6 6 6 5 5 6 8 10
15 15 14 13 13 14 14 13 11 10 10 9 8 7 7 7 6 5 4 3 3 3 3 3 3 3 3 3 4 5 5 5 5 7 6 6 7 7 7 8 10 11
16 15 15 14 14 14 13 12 11 10 10 9 8 7 7 7 6 5 4 4 4 4 4 4 4 3 3 3 4 5 5 5 6 7 8 8 8 8 8 9 9 9
18 17 16 16 15 15 13 12 11 10 10 9 8 8 7 7 5 5 4 4 4 4 4 4 4 4 3 3 3 4 4 5 6 8 9 9 8 8 9 10 11 12
19 17 16 16 16 15 14 13 12 10 10 9 8 8 7 6 6 4 4 4 4 4 3 2 3 3 3 3 3 3 3 3 4 5 5 5 5 6 8 9 11 13
20 18 17 16 16 15 14 14 12 11 10 9 8 7 7 6 5 5 4 5 4 4 3 2 2 3 3 3 3 3 3 3 3 4 3 3 4 5 6 6 6 9
20 20 19 18 16 15 15 14 13 12 10 9 8 7 7 5 5 5 4 5 5 4 5 4 3 4 4 4 3 4 4 4 4 4 4 5 6 7 8 6 5 6
20 20 19 18 17 16 16 15 14 12 10 9 8 7 7 6 5 5 5 6 6 5 6 5 4 4 4 4 3 3 4 5 5 5 6 7 6 6 7 7 7 7
21 21 20 19 17 17 17 15 14 13 11 10 9 8 7 6 6 5 5 6 6 6 6 5 5 5 5 4 4 3 3 4 5 6 6 6 5 5 6 5 6 7
20 21 20 19 18 18 18 16 14 13 12 10 9 9 7 6 6 5 5 6 6 5 5 4 4 3 4 5 4 5 4 3 4 5 5 6 5 6 6 6 6 6
20 20 20 19 19 19 18 16 15 13 12 10 10 9 7 6 6 6 5 5 5 5 4 4 3 3 4 4 2 4 5 5 4 5 5 6 5 5 5 5 6 6
19 19 19 18 18 18 18 16 15 13 12 11 10 9 8 7 6 6 6 6 6 6 4 4 4 4 4 4 3 2 2 5 7 6 5 6 6 6 6 5 6 6
19 19 20 20 19 19 18 16 15 14 13 12 11 10 9 7 7 7 6 7 8 6 6 4 2 2 3 2 2 3 2 1 5 7 6 6 7 7 6 6 7 6
20 20 20 21 21 20 19 18 18 17 15 12 11 11 10 7 7 7 6 7 8 8 6 5 4 3 3 3 2 2 3 5 2 4 6 6 6 7 6 6 7 6
20 21 22 23 23 23 22 21 19 17 15 13 11 11 11 8 6 7 7 9 11 10 8 7 6 5 4 4 3 3 2 3 1 2 4 5 5 6 6 7 8 7
21 22 23 25 26 25 23 20 16 15 15 13 11 12 12 11 9 9 10 10 11 11 10 9 8 7 6 6 5 4 4 3 1 2 4 4 4 4 3 3 5 5
24 25 24 23 23 22 20 18 16 15 14 12 11 12 14 14 12 12 11 10 10 12 11 10 9 8 7 7 6 5 6 4 1 1 2 2 2 2 1 0 1 1
25 28 26 24 22 21 19 17 16 16 15 14 13 13 13 13 13 13 12 11 10 12 12 11 10 8 7 7 6 6 6 3 1 1 2 2 2 1 1 1 1 2
24 27 26 24 22 20 18 18 17 16 16 16 16 15 13 13 13 12 12 11 10 10 10 11 10 7 6 6 6 7 6 3 1 3 2 2 2 2 2 2 1 1
23 24 24 23 22 20 19 18 16 15 15 15 16 16 14 12 12 13 13 12 10 9 8 8 9 8 6 5 5 7 6 4 1 2 2 1 1 1 2 2 2 2
22 23 24 23 22 20 19 17 16 16 15 14 14 14 13 11 12 13 13 12 11 10 9 7 6 6 5 4 3 4 5 3 3 2 1 1 2 2 2 2 3 5
23 22 23 23 22 20 19 18 17 16 15 14 13 12 12 11 11 12 12 11 10 10 10 7 5 6 6 5 5 3 3 3 5 4 2 3 4 4 4 3 3 6
23 22 21 21 19 18 17 16 14 13 13 13 11 10 9 9 9 9 9 8 6 5 5 4 3 4 7 8 7 6 4 5 6 5 4 5 6 5 5 5 4 4

ECMWFNIL_925_spd_042.txt.gz
Wind_Speed
18 17 19 19 17 18 18 18 18 16 15 14 13 12 11 9 9 8 7 7 6 5 5 5 6 6 6 7 8 9 11 13 15 13 12 14 15 17 18 16 15 15
17 16 17 17 15 15 15 15 16 14 14 14 13 12 12 10 9 8 8 7 7 8 5 4 6 6 6 8 9 10 11 12 14 13 12 13 17 17 16 16 16 15
16 15 15 15 15 15 15 15 15 14 13 13 13 12 11 10 9 8 8 7 7 9 7 5 5 5 6 7 8 10 11 12 12 12 11 11 16 17 15 15 16 15
17 15 14 15 16 17 16 15 14 13 14 13 12 12 11 9 8 7 7 7 7 9 9 7 6 6 6 6 6 7 9 11 12 14 12 11 12 13 15 15 15 15
19 16 15 16 17 17 16 15 15 13 13 13 12 11 10 9 8 7 7 7 7 8 9 8 7 8 7 5 6 6 7 9 13 15 15 14 11 9 12 14 13 14
20 18 16 17 17 17 16 15 15 14 14 13 12 11 10 9 8 7 7 7 7 8 8 8 7 8 7 6 5 5 6 8 11 13 15 16 14 10 10 12 13 14
21 20 19 18 17 17 16 16 15 15 14 13 12 11 10 9 8 7 7 6 7 7 8 8 8 7 7 7 6 5 6 8 9 10 11 13 16 13 11 12 14 14
23 23 21 20 19 18 17 17 16 15 14 13 12 11 10 9 8 7 6 6 6 6 7 7 8 8 7 7 7 5 6 8 7 8 9 10 13 13 12 13 14 14
25 25 24 21 20 19 17 17 16 16 14 14 13 11 10 8 8 7 6 6 6 7 7 7 7 8 7 7 8 7 7 7 6 7 9 10 10 12 12 11 13 14
27 27 26 24 20 19 18 17 17 15 14 13 12 11 9 8 8 7 6 7 8 8 8 8 8 7 7 7 7 7 8 8 7 7 9 9 10 12 12 11 13 14
29 27 27 25 21 20 19 17 16 15 14 13 12 11 9 8 8 7 7 8 8 9 9 8 8 7 7 7 6 6 8 8 9 8 8 9 9 12 15 14 13 14
26 26 27 25 22 21 20 18 16 15 14 13 12 12 9 8 8 7 9 9 7 8 10 10 9 8 8 7 6 6 6 7 10 8 7 9 8 10 15 13 11 14
22 24 25 23 23 22 20 18 17 15 15 13 12 12 9 8 8 6 7 9 6 6 11 12 11 11 11 9 6 5 5 7 10 6 4 6 6 9 13 11 8 11
22 24 25 22 23 24 21 19 18 16 15 13 13 13 10 8 8 6 6 9 9 10 12 12 11 13 12 10 9 7 6 7 7 6 6 7 7 9 12 10 8 9
25 24 24 23 24 24 21 19 18 17 16 15 14 12 10 9 9 8 7 10 11 11 11 9 10 11 10 10 11 11 7 4 4 4 6 5 5 8 9 8 8 9
27 23 22 23 25 23 21 20 19 17 17 16 14 13 12 11 10 8 8 10 10 9 9 8 8 9 9 9 9 9 8 6 6 5 4 4 4 4 4 5 7 9
26 25 23 23 24 24 22 20 19 18 18 17 15 15 14 12 11 11 12 13 11 9 8 7 6 6 6 7 7 6 7 9 8 6 6 5 5 6 6 6 8 10
23 26 24 23 23 23 21 19 18 19 19 17 16 16 14 13 13 14 14 15 13 10 9 7 6 5 4 4 5 4 6 9 9 6 4 3 3 4 4 5 9 10
22 25 24 23 24 23 22 21 21 21 19 18 17 15 14 15 15 15 14 14 12 11 10 9 7 6 4 4 4 4 5 5 6 6 3 2 3 4 6 6 8 11
19 22 23 25 25 25 24 23 22 21 20 20 19 18 18 18 17 15 14 12 12 12 11 10 9 7 6 5 5 4 5 4 5 7 5 5 6 7 8 9 9 10
21 22 23 25 25 25 26 24 22 21 20 20 21 20 19 18 16 15 14 13 13 13 12 11 10 8 6 6 6 6 6 5 5 6 6 7 7 8 7 7 8 9
24 24 24 24 25 26 25 23 22 21 19 18 19 18 18 17 16 15 14 14 14 13 12 12 10 8 6 6 7 7 7 7 5 3 5 7 6 6 6 6 8 10
24 25 26 25 25 24 24 23 21 20 18 18 18 19 19 19 18 17 15 14 13 12 12 12 11 9 7 6 6 7 8 8 5 3 6 6 5 5 5 6 6 7
27 27 27 26 25 23 22 22 21 20 19 19 19 20 20 19 18 18 17 15 14 12 11 11 12 10 8 7 7 6 7 9 9 9 9 8 7 7 6 6 6 5
30 28 27 27 26 23 20 20 20 20 19 18 19 19 18 16 16 17 17 15 14 13 11 11 11 10 9 8 7 6 6 7 9 11 12 11 11 11 8 5 6 7
30 29 28 27 26 24 21 19 18 18 18 18 18 19 18 16 15 15 15 14 12 10 9 9 9 8 8 7 7 6 6 5 6 8 9 8 9 11 10 8 8 7

ECMWFNIL_925_spd_045.txt.gz
Wind_Speed
30 30 29 28 27 26 26 26 25 23 22 23 21 19 19 18 16 15 13 12 11 12 12 11 14 15 14 14 16 19 20 20 18 17 18 19 20 22 22 20 18 16
32 31 28 27 26 25 25 25 24 23 22 22 21 20 18 17 16 14 12 11 11 11 12 12 14 16 15 14 15 17 19 20 18 17 17 18 18 21 22 20 17 16
33 31 28 28 27 25 25 24 23 23 22 22 21 19 18 16 15 13 11 11 12 12 13 12 14 16 16 15 15 16 17 18 18 17 16 17 18 20 21 20 18 18
33 32 30 28 27 26 25 25 24 23 22 22 21 20 18 16 15 13 10 11 14 13 12 11 13 16 17 16 16 15 16 16 17 17 16 16 18 20 20 19 19 19
33 33 31 28 27 28 28 26 25 24 23 22 21 20 19 17 15 14 12 14 16 15 13 12 13 16 18 17 17 18 17 17 17 17 16 17 19 20 19 19 19 19
33 32 30 29 29 30 30 28 27 26 23 21 19 18 18 17 16 15 15 16 16 15 14 14 13 15 16 14 15 17 16 17 18 17 16 18 19 19 18 18 19 19
30 30 31 30 30 30 30 29 27 25 22 20 19 19 18 17 17 16 15 16 15 15 16 15 14 16 15 11 10 12 13 15 17 16 17 18 17 17 18 18 18 19
28 29 31 30 29 30 30 29 27 25 23 23 21 19 18 17 16 15 14 15 15 15 16 16 14 16 16 13 10 10 12 14 16 16 17 17 16 16 18 17 16 18
27 27 29 29 28 29 29 28 28 26 25 24 22 20 18 17 16 14 13 14 15 15 16 17 15 14 15 15 13 12 12 12 13 14 15 16 17 16 16 16 15 17
24 26 27 27 27 28 29 28 27 27 26 24 23 22 19 17 17 14 13 15 16 16 16 16 15 14 14 13 13 14 13 12 11 10 11 14 16 16 16 16 17 17
21 28 27 26 29 29 29 29 27 26 26 25 24 22 19 18 17 15 15 16 14 14 15 14 12 13 14 13 13 13 13 13 13 12 12 12 14 15 14 15 18 18
18 27 28 26 29 31 29 28 27 26 25 24 23 22 20 19 17 15 15 15 15 15 16 14 13 14 14 12 12 14 13 13 14 14 14 13 14 15 14 15 19 18
15 19 26 28 28 30 30 28 27 26 25 24 22 21 21 19 18 17 15 15 17 18 17 16 15 15 14 11 11 13 15 14 12 13 14 14 14 15 14 16 18 16
15 14 18 28 29 29 29 28 27 26 24 23 22 21 20 18 18 18 18 18 20 20 18 18 18 16 12 10 11 12 14 13 12 11 13 16 17 17 15 15 14 13
17 13 13 22 28 30 29 27 26 25 24 23 22 21 19 18 19 21 23 24 23 22 22 21 20 18 13 11 10 11 12 12 13 14 15 17 17 17 17 17 14 12
18 16 15 16 19 26 27 26 25 25 25 25 22 21 19 19 22 24 25 25 23 22 22 21 21 19 16 13 11 9 8 9 10 12 14 16 16 16 18 18 15 13
18 18 20 16 15 21 25 25 25 26 26 25 22 22 21 21 23 25 24 23 22 21 20 19 19 18 17 15 13 10 8 8 8 9 11 11 13 15 17 17 17 16
17 16 19 21 21 23 23 24 26 27 25 24 23 23 23 23 25 25 22 21 20 19 18 18 17 16 15 15 14 13 10 9 9 9 7 7 9 13 16 18 19 19
17 13 15 19 21 22 21 23 27 28 25 25 25 25 25 25 25 23 22 20 19 17 17 17 16 15 13 13 13 13 12 11 10 9 9 10 11 14 19 22 22 20
17 16 14 16 19 21 20 22 26 28 27 28 28 26 26 26 24 23 22 20 18 18 17 16 16 14 13 13 12 11 12 13 12 13 15 17 18 19 20 21 21 20
10 17 19 18 20 23 23 23 27 30 30 30 29 28 26 25 24 23 22 21 19 19 17 16 15 14 12 12 12 11 12 14 14 16 18 19 20 21 20 19 18 17
19 19 23 23 24 26 26 24 25 30 32 31 30 28 26 24 23 22 22 21 20 19 18 17 15 13 13 13 13 13 14 15 15 16 18 20 21 21 20 18 16 15
28 25 26 27 27 28 28 25 25 28 30 31 31 28 26 25 23 22 21 20 19 18 18 18 16 14 13 14 14 14 15 17 18 18 18 20 21 21 19 18 16 14
33 28 27 31 32 30 28 27 26 27 28 29 29 28 26 25 23 22 21 20 19 18 18 18 18 15 14 14 15 15 17 19 20 20 20 21 21 20 19 17 16 14
35 31 28 32 34 31 28 28 26 26 28 28 28 27 26 24 22 22 21 19 18 18 17 18 19 17 14 13 14 16 19 22 23 23 23 21 20 20 18 16 14 13
35 32 30 33 35 32 28 27 25 25 26 26 25 25 24 23 21 20 20 19 18 17 17 17 17 16 14 12 12 14 15 18 21 24 24 22 20 18 16 14 12 10

ECMWFNIL_925_spd_048.txt.gz
Wind_Speed
25 26 27 27 27 27 28 28 27 27 27 27 25 25 24 22 20 18 19 18 17 17 17 17 17 17 17 18 18 16 17 18 18 19 21 22 22 23 25 23 20 19
21 26 27 27 26 27 28 28 27 26 26 26 24 24 23 21 19 20 20 19 18 17 16 16 16 17 18 18 18 17 17 17 17 18 18 20 21 21 23 24 22 18
16 24 26 27 27 27 28 27 26 25 24 24 23 22 21 19 19 20 20 18 18 17 16 15 15 17 17 17 17 18 18 19 18 17 18 19 20 20 21 23 23 20
14 20 25 27 27 27 28 27 25 25 24 24 23 22 21 19 19 20 19 17 16 16 15 14 14 15 16 17 17 18 19 20 19 18 17 18 18 20 21 21 22 21
19 20 23 26 28 27 26 26 25 25 25 24 23 22 21 21 21 21 21 19 17 16 15 15 15 15 17 17 18 19 19 19 19 18 17 17 17 19 22 22 21 21
26 23 21 22 26 27 26 26 26 25 26 25 24 24 23 23 23 23 23 23 20 18 17 16 15 17 17 16 17 19 18 18 19 18 17 17 17 19 22 23 22 21
25 23 19 18 20 25 26 26 26 26 26 26 26 25 25 26 25 24 24 24 23 21 19 17 15 16 16 15 17 19 18 19 19 18 18 17 17 20 22 22 22 21
20 23 23 18 17 21 26 27 27 27 27 28 28 25 26 25 23 24 25 24 23 22 19 17 15 14 14 14 16 18 19 19 18 18 19 18 17 20 21 21 21 21
16 18 23 20 16 21 26 28 28 30 30 30 28 25 25 24 22 23 26 24 23 22 20 18 16 14 13 13 13 15 17 19 19 19 19 18 19 20 21 21 20 20
14 14 19 20 17 21 28 31 31 32 32 29 27 26 24 24 22 23 24 23 23 22 20 18 16 15 14 12 11 12 13 16 17 18 18 18 19 19 20 21 20 21
18 17 19 21 18 18 24 33 33 29 29 28 27 26 24 23 22 22 22 22 22 22 20 17 15 15 15 14 12 11 12 13 15 16 17 18 18 18 19 20 20 21
24 23 23 24 21 17 18 26 30 26 26 27 26 25 25 23 21 21 21 22 22 22 21 18 16 15 14 14 14 13 13 13 13 14 16 17 18 17 17 18 19 19
25 27 27 26 26 21 16 19 25 25 25 27 25 25 25 22 21 23 22 22 23 23 22 20 18 16 14 14 14 14 15 14 14 14 14 15 17 17 17 17 18 19
17 23 25 25 27 28 22 20 24 26 26 27 26 25 25 24 25 26 24 23 23 23 22 20 19 17 15 16 16 15 16 15 15 15 15 15 16 16 16 15 16 19
11 15 17 22 28 31 29 26 26 27 28 27 27 26 26 26 27 26 23 23 23 22 20 19 19 17 15 14 15 15 14 15 15 16 16 16 16 16 15 13 15 19
9 14 14 19 28 33 34 31 28 28 28 28 29 28 26 27 27 26 24 24 24 22 21 21 21 18 16 15 15 14 12 12 13 16 18 18 17 16 15 14 15 17
9 14 13 17 27 32 33 31 29 29 28 28 28 27 27 28 27 27 28 27 25 23 23 22 20 18 17 16 16 17 15 14 12 14 17 19 17 16 16 16 15 14
10 13 13 18 27 30 30 28 27 27 26 27 28 28 30 31 29 29 29 28 26 25 23 21 20 18 17 16 15 15 15 16 15 14 15 17 18 18 18 17 15 13
6 12 17 23 27 27 27 25 24 25 25 27 31 32 32 33 32 31 30 28 27 26 23 22 20 18 17 15 14 14 15 15 14 14 16 18 20 21 20 18 16 15
1 9 17 25 27 24 23 24 26 26 24 27 33 34 33 34 32 31 29 27 26 25 23 22 20 18 17 15 14 14 15 16 15 15 17 20 21 21 20 19 18 18
11 4 7 16 21 23 22 23 28 28 22 24 32 33 32 33 31 29 28 25 23 23 22 20 18 17 16 15 16 17 17 18 18 18 20 22 22 22 22 21 20 20
23 15 10 8 12 20 25 23 26 29 26 25 30 31 30 31 29 27 26 24 22 21 20 18 16 16 16 17 18 20 21 21 21 21 23 24 24 23 22 21 20 19
31 27 22 18 14 16 23 25 25 28 29 28 29 29 28 29 28 26 25 23 22 20 19 17 15 14 16 18 20 21 23 24 25 25 27 27 25 24 22 20 19 17
33 32 30 28 25 20 19 25 28 28 29 30 30 29 27 27 28 27 25 23 22 21 20 18 16 14 15 19 21 22 24 26 27 28 28 28 26 24 22 21 19 17
32 33 33 33 31 25 20 23 30 31 29 30 31 29 27 28 29 29 27 25 24 23 22 20 19 16 16 20 23 24 24 26 28 28 28 27 25 24 22 20 18 16
33 34 34 33 32 28 24 22 28 33 31 31 31 29 28 29 30 30 30 28 26 25 23 22 21 19 17 18 22 25 26 26 27 28 28 26 24 22 21 19 16 14

ECMWFNIL_925_spd_051.txt.gz
Wind_Speed
16 18 19 20 21 21 20 20 20 21 22 22 24 25 25 25 24 23 23 22 21 21 21 20 20 21 22 21 21 21 21 21 22 24 25 25 24 23 23 24 24 22
17 19 21 21 20 20 20 20 20 21 21 22 23 25 26 26 25 24 24 22 22 21 20 19 20 21 22 22 21 21 21 21 21 22 24 25 24 22 22 24 24 21
21 23 23 21 19 19 18 19 19 19 20 21 22 24 25 26 26 25 24 22 21 21 19 18 19 20 21 21 20 20 21 21 21 22 22 22 23 22 21 23 25 22
23 23 20 18 17 16 16 17 19 20 20 20 22 24 26 26 27 26 24 22 21 20 20 19 18 19 21 21 20 21 21 20 20 21 20 19 21 21 21 22 25 24
23 21 20 19 18 16 15 16 18 20 20 21 21 23 26 27 27 25 24 23 22 20 20 19 18 19 20 21 21 21 21 20 20 19 19 19 20 21 21 21 23 24
21 20 22 23 21 18 17 16 17 19 20 21 21 23 25 26 26 25 23 22 21 20 19 19 19 19 19 20 20 21 20 20 19 18 18 19 19 20 20 20 21 23
20 20 21 22 20 19 18 18 18 18 19 21 22 23 24 26 25 23 21 20 19 18 18 18 20 19 18 18 19 19 19 19 19 18 18 18 18 18 19 19 20 21
20 21 20 20 19 18 17 18 19 19 19 21 23 24 24 25 25 23 21 20 19 17 17 17 18 18 17 18 18 18 18 19 19 18 18 18 17 18 19 20 21 21
21 22 22 21 19 18 16 16 18 20 19 19 24 26 26 25 25 24 23 21 19 18 17 17 17 16 16 17 18 18 19 19 19 19 20 19 18 18 19 20 21 22
21 23 23 23 22 20 18 16 17 19 20 20 23 25 26 25 25 25 24 22 20 19 18 17 16 15 16 17 17 17 19 20 20 20 20 19 19 18 18 20 21 22
18 21 22 23 24 22 20 19 19 20 22 22 23 24 25 25 25 26 25 24 24 22 20 18 16 15 15 15 16 16 17 19 20 20 20 19 19 18 18 19 20 22
15 18 20 23 24 23 21 21 21 22 24 25 23 25 26 26 26 27 26 27 27 24 22 19 17 16 15 15 15 15 16 17 19 20 19 19 19 18 18 19 20 21
12 15 18 21 22 22 23 23 24 25 26 26 25 25 27 27 27 26 25 27 27 25 22 20 19 18 17 16 15 15 15 15 16 17 18 18 18 18 18 19 20 20
8 12 15 19 21 22 23 24 25 27 26 24 25 26 27 27 27 27 26 26 26 25 23 22 21 19 19 18 17 16 15 14 14 15 16 17 16 17 17 17 18 19
4 7 11 16 20 22 23 24 25 27 26 24 25 27 28 27 28 28 28 28 26 25 24 23 21 20 19 18 17 17 16 15 14 14 15 16 16 15 15 15 15 16
5 4 8 14 19 22 23 24 26 27 26 25 26 27 28 27 27 28 28 28 28 26 25 23 21 19 18 17 16 16 16 15 15 15 14 15 15 15 15 15 15 15
8 5 8 13 17 20 22 24 26 27 26 27 27 27 26 26 27 27 28 28 27 26 25 23 20 18 16 16 15 15 16 16 15 15 15 15 15 15 16 15 15 14
10 7 10 13 15 18 21 24 26 27 27 27 28 27 26 25 26 26 26 26 26 25 24 21 19 17 14 13 13 14 14 15 15 16 17 17 16 16 15 15 14 13
10 7 10 12 15 19 23 24 25 26 25 24 26 27 26 25 25 25 24 24 24 23 22 20 19 18 15 14 13 13 13 14 14 16 18 18 17 15 15 14 14 13
15 11 10 10 11 17 22 22 22 24 24 22 22 24 24 24 24 23 22 22 22 22 20 19 18 18 17 16 14 13 13 13 14 16 17 17 17 17 16 15 13 13
20 16 14 11 6 12 19 20 19 20 21 22 21 21 21 21 21 20 20 19 19 19 19 18 17 17 17 17 16 15 14 13 14 16 17 18 18 17 17 15 14 14
23 19 17 16 10 2 10 14 17 20 21 22 22 20 19 18 17 16 17 17 17 17 18 17 16 15 16 16 16 17 16 15 15 17 18 19 18 17 16 16 16 17
24 22 21 21 18 12 8 7 11 17 21 24 24 22 19 17 16 14 15 16 15 15 16 16 15 15 16 16 17 18 18 18 18 18 19 19 19 18 18 19 19 19
25 24 24 25 25 23 19 15 12 11 15 21 26 27 24 21 19 17 16 16 15 14 15 16 16 16 16 17 18 18 18 20 20 20 20 22 22 22 21 21 20 20
26 25 26 26 26 26 24 21 17 15 15 19 25 29 28 25 23 23 22 20 18 17 15 16 17 16 15 17 17 18 19 21 22 22 23 24 24 24 22 21 20 19
27 26 25 25 26 25 24 25 23 19 18 19 22 28 31 29 25 25 26 26 24 23 20 18 17 16 14 15 16 17 20 22 22 24 26 26 25 24 23 21 19 18

ECMWFNIL_925_spd_054.txt.gz
Wind_Speed
24 25 25 23 21 18 16 17 20 21 21 24 27 28 27 25 24 24 23 21 21 21 20 18 16 15 14 15 15 17 18 19 20 20 20 21 21 23 24 24 23 23
22 22 22 21 20 18 17 17 20 20 20 22 26 27 25 23 23 22 22 21 21 21 19 18 16 16 15 16 16 17 18 19 19 19 19 20 21 22 23 23 24 23
19 19 19 19 20 18 17 18 19 18 17 19 24 26 24 22 21 20 20 21 21 20 19 18 18 17 16 17 18 19 19 19 19 18 18 19 20 22 22 22 22 21
18 19 20 20 19 17 18 20 19 17 16 17 22 25 24 20 19 19 19 19 20 19 18 19 19 17 16 17 18 18 18 18 18 17 17 18 19 21 22 21 20 20
14 16 19 18 16 16 19 21 19 15 14 17 22 24 20 16 16 18 19 19 19 18 18 19 18 17 16 16 16 17 18 17 16 16 16 17 18 19 21 21 20 20
11 13 15 15 15 15 18 20 17 14 16 19 22 23 17 12 14 17 18 19 18 18 19 18 18 17 16 15 15 17 17 16 16 16 16 17 17 18 19 20 20 20
12 12 13 14 14 15 18 18 15 15 18 20 22 22 16 12 13 15 16 18 19 19 19 19 18 17 16 16 16 17 17 16 17 16 16 16 17 17 18 18 19 20
11 11 12 15 15 14 15 16 16 17 20 22 22 21 16 12 12 13 14 17 18 19 18 17 17 16 16 17 16 16 17 17 17 17 16 17 17 17 18 18 19 20
11 11 12 15 16 14 13 15 19 21 22 23 23 20 17 14 13 12 12 15 17 18 17 16 16 15 15 16 16 15 16 17 18 18 17 17 18 17 18 19 19 20
12 11 11 13 15 14 13 14 19 23 25 25 23 20 17 15 14 14 13 14 16 18 17 16 15 15 14 15 15 15 16 17 18 19 19 19 19 19 18 19 20 21
14 11 10 12 14 15 15 15 18 22 25 26 24 20 18 17 17 17 15 14 15 17 18 17 16 14 14 14 15 15 15 16 17 19 20 19 20 20 19 19 20 21
17 14 13 12 13 14 15 16 17 19 23 25 24 20 19 19 18 17 16 15 15 17 18 18 16 14 13 14 15 15 15 16 16 18 19 19 19 19 19 19 19 20
19 16 14 15 14 14 15 16 16 18 21 24 23 21 20 20 17 16 16 14 15 18 19 18 17 14 13 14 14 14 14 15 16 17 18 18 18 18 19 19 18 18
22 19 14 14 15 15 15 15 16 17 20 22 23 21 20 20 18 17 16 14 16 19 19 19 18 16 15 15 14 14 14 14 15 15 16 18 18 18 19 18 17 17
25 21 16 13 14 15 15 15 15 17 19 22 23 21 19 19 19 17 16 15 18 20 20 20 20 18 17 16 16 15 15 14 14 14 15 16 18 18 18 17 16 16
28 24 19 15 13 14 16 16 16 17 19 21 21 19 19 19 19 18 17 17 20 21 21 21 20 18 18 17 17 16 16 15 15 14 14 15 16 17 17 16 16 15
30 27 23 19 15 13 15 17 17 17 19 20 20 19 19 19 19 19 19 20 21 21 21 20 20 19 18 18 17 16 16 16 15 15 14 14 15 16 16 16 15 14
30 29 26 22 19 15 13 14 16 17 18 18 19 18 18 18 18 19 20 20 20 20 20 20 20 19 19 18 16 16 16 16 15 16 15 15 15 16 17 16 15 14
31 28 27 24 21 19 15 12 14 16 17 17 17 17 17 16 17 18 19 19 19 19 20 20 20 20 19 18 17 16 16 16 16 17 17 16 16 16 16 16 15 15
32 29 26 24 22 19 16 12 9 11 12 13 13 14 15 16 16 16 16 17 18 18 19 19 19 19 18 17 16 16 17 17 17 17 17 16 16 16 16 16 15 15
33 30 27 25 22 18 14 11 6 3 4 6 7 10 13 15 15 14 14 14 14 16 16 17 17 18 17 16 16 15 15 16 17 16 16 17 17 16 16 16 15 14
32 30 28 26 24 20 18 15 11 7 4 2 3 5 8 11 14 13 12 12 13 13 14 14 14 15 15 15 15 14 13 15 16 16 17 18 18 17 17 16 15 14
31 30 28 27 25 23 21 19 15 13 11 8 7 7 7 8 10 12 12 12 13 13 12 12 11 11 13 15 16 15 15 16 17 18 18 19 19 18 17 16 15 15
30 29 28 27 26 23 21 20 18 17 16 14 13 14 13 11 11 12 14 14 13 13 11 11 11 10 12 15 17 17 17 17 17 19 20 20 20 20 18 18 17 17
29 28 28 27 25 23 21 20 19 18 17 17 18 18 18 16 15 14 17 19 17 15 15 13 12 11 10 13 16 17 18 18 19 20 22 22 22 22 21 20 19 18
29 28 28 27 25 24 22 21 20 20 20 21 22 22 22 21 19 17 17 24 24 20 19 18 16 14 11 9 13 16 18 19 20 22 24 25 24 24 23 22 21 21

ECMWFNIL_925_spd_057.txt.gz
Wind_Speed
12 13 12 12 14 17 19 18 16 15 14 14 13 11 10 13 15 14 14 16 17 17 15 14 17 18 17 16 15 15 14 14 14 13 13 15 14 14 17 18 18 17
12 13 13 12 12 13 15 17 19 18 14 13 14 11 9 13 16 16 16 16 16 16 15 15 17 15 14 15 15 13 11 12 13 13 14 16 15 14 16 17 18 18
9 11 12 13 14 15 16 18 21 22 19 15 14 12 11 14 17 17 16 15 15 14 14 15 15 14 13 14 13 12 11 11 13 14 15 17 16 14 15 15 16 15
10 10 11 11 13 15 17 18 19 21 20 16 13 12 13 15 16 16 15 15 15 15 14 14 14 14 14 14 14 14 14 14 14 14 15 16 15 14 13 14 14 14
13 12 12 11 12 14 16 17 18 19 18 16 14 13 14 15 15 15 14 14 15 15 14 14 15 16 16 14 13 14 16 17 15 14 14 14 14 12 12 12 14 15
15 13 12 12 13 14 16 17 17 18 18 16 14 13 13 14 14 13 14 14 13 13 14 13 15 16 15 13 12 13 16 16 13 13 13 13 12 11 11 11 12 13
17 15 13 12 13 14 16 18 18 18 17 16 15 13 12 13 13 12 12 13 12 13 13 13 14 14 13 11 11 12 13 13 12 12 12 12 11 11 11 11 12 13
18 15 13 13 13 14 15 17 17 16 16 15 15 14 12 12 13 12 12 12 12 13 14 13 13 14 12 12 11 12 12 11 11 12 12 11 11 11 11 11 13 14
19 17 13 12 13 14 15 16 16 15 14 15 15 13 11 11 12 12 12 12 12 13 14 12 12 12 12 11 12 12 11 11 12 12 13 12 12 12 12 12 14 14
20 18 15 12 13 14 15 15 16 15 14 15 15 12 10 11 11 11 12 12 12 13 13 11 11 11 11 11 11 11 11 11 11 12 13 13 12 12 12 12 14 14
21 20 18 16 13 14 15 15 16 16 16 15 14 12 11 10 10 11 12 12 12 13 12 12 12 12 12 11 11 11 11 10 10 11 12 12 12 12 12 13 13 14
21 22 21 20 16 13 15 16 15 15 15 14 12 12 11 10 10 11 12 13 13 13 12 12 12 12 11 10 10 11 11 9 9 10 10 11 12 11 12 12 13 13
21 21 21 21 20 16 13 14 13 12 12 12 12 11 11 10 11 12 13 13 14 15 14 13 12 12 11 10 9 10 10 10 9 9 9 10 11 11 11 11 12 13
22 21 21 21 22 19 14 11 12 12 11 12 13 11 9 10 11 13 14 14 14 16 15 12 12 12 11 10 10 9 9 10 10 10 10 10 10 10 10 10 13 16
22 22 23 23 23 21 18 14 12 12 11 11 12 10 9 9 9 12 16 15 14 14 13 11 12 13 11 10 10 9 9 9 9 10 9 10 10 10 10 11 13 16
23 24 25 25 25 23 20 17 12 10 9 10 10 9 9 9 8 11 15 16 16 16 15 14 14 13 11 10 10 9 9 8 8 8 9 9 9 10 10 11 12 13
24 26 26 26 27 27 23 20 15 10 8 9 10 10 11 11 10 11 14 16 17 16 16 17 15 12 10 10 10 10 9 8 7 8 9 8 9 10 10 11 11 11
25 26 27 27 28 29 26 22 18 13 10 8 8 9 10 11 11 11 14 15 15 14 15 17 15 12 11 10 10 10 10 10 9 8 9 9 9 9 10 10 10 11
24 25 27 27 27 29 29 26 23 18 14 10 7 6 6 7 8 10 12 13 13 13 14 15 14 13 12 11 11 12 11 11 11 11 10 10 10 10 10 10 10 10
23 24 25 25 25 27 28 28 26 22 18 14 10 7 5 4 3 5 7 9 10 11 12 13 14 14 13 12 12 13 13 13 14 14 13 11 11 11 11 12 11 11
23 23 23 23 22 23 24 24 24 24 21 17 15 14 12 10 8 6 4 4 5 6 9 12 13 14 14 14 15 15 15 15 16 17 16 14 14 14 14 14 14 13
22 22 22 23 22 21 21 20 21 23 22 19 17 16 15 13 11 10 8 5 3 2 4 8 12 13 14 15 16 16 16 17 18 18 18 17 17 17 17 16 15 15
21 21 21 22 22 22 21 20 19 19 20 20 18 17 17 16 14 13 12 10 7 4 2 3 7 10 12 14 15 17 18 18 18 17 17 18 18 18 18 18 17 17
19 20 20 21 22 22 21 20 18 17 17 19 20 20 19 18 16 14 13 13 12 10 7 3 2 5 9 13 14 17 19 18 18 18 18 17 17 17 18 19 19 18
18 19 20 21 21 21 20 19 19 17 16 17 20 23 23 21 19 18 17 16 15 14 12 9 6 1 6 11 14 16 18 19 19 20 19 18 17 17 17 17 17 17
18 19 20 20 20 20 19 19 17 17 17 17 18 21 24 25 25 25 25 23 19 17 15 13 12 7 1 8 12 14 17 19 20 22 21 20 18 16 15 14 14 15

ECMWFNIL_925_spd_060.txt.gz
Wind_Speed
11 11 12 13 13 14 15 16 16 16 15 13 13 13 14 14 15 16 16 15 15 16 16 15 14 15 15 14 12 11 11 13 15 15 14 14 15 16 17 17 15 14
13 13 13 14 14 14 14 14 14 14 14 13 13 13 14 14 14 15 14 14 15 16 17 15 15 15 15 14 13 13 13 14 17 17 17 17 18 18 18 16 15 15
14 14 14 15 15 15 15 16 15 14 13 13 14 14 13 13 14 14 13 13 15 17 17 16 15 16 16 14 14 14 14 15 17 18 18 19 19 17 16 15 15 17
16 16 16 16 16 15 15 16 17 16 14 14 14 13 12 12 12 13 13 14 16 18 18 17 17 16 15 15 15 14 13 13 14 16 16 17 17 16 16 16 16 15
18 17 17 17 16 15 15 16 16 16 14 12 13 13 12 11 12 13 14 15 17 18 18 18 18 17 16 16 16 14 13 14 14 15 16 15 15 15 16 16 14 14
19 19 18 18 17 16 16 16 16 15 14 12 13 13 13 12 12 14 15 15 17 19 20 19 19 18 18 17 16 15 15 15 15 16 16 15 15 15 15 15 14 15
18 19 19 18 18 17 16 17 17 16 14 13 14 14 13 13 14 15 16 16 18 20 20 20 20 19 18 17 16 16 15 15 16 16 16 15 14 15 15 15 14 15
17 18 19 19 18 17 17 17 17 17 15 15 15 15 14 14 15 16 17 17 18 20 21 20 20 18 18 17 16 15 15 15 15 16 16 16 15 15 15 14 14 15
17 17 19 20 19 17 17 17 18 17 16 16 16 16 16 17 16 16 18 18 18 20 21 20 19 18 17 17 16 15 15 15 15 16 16 16 16 15 15 14 14 15
18 18 19 20 20 19 18 18 18 17 15 17 17 16 17 18 17 16 17 17 17 19 19 18 17 17 17 16 15 14 15 15 15 15 15 15 15 15 14 14 14 15
20 18 19 21 21 21 20 20 18 16 15 16 16 15 16 16 15 16 17 18 17 18 18 17 17 17 16 16 15 15 15 15 14 14 14 14 14 14 14 14 14 14
21 20 20 21 21 22 21 20 18 16 15 15 13 14 15 14 14 16 18 19 19 18 19 19 18 17 16 15 15 15 15 15 14 13 14 14 14 14 14 14 14 14
21 21 21 21 22 22 21 20 18 15 14 13 12 11 11 12 14 15 17 18 18 18 18 18 16 15 15 15 14 14 14 14 14 13 13 14 14 14 14 14 14 15
22 21 21 21 22 21 21 20 19 16 13 11 10 8 7 8 10 11 13 14 13 12 13 14 15 14 14 14 14 13 13 13 13 13 13 13 14 14 14 14 14 15
22 21 21 21 22 22 22 23 21 17 12 9 8 7 7 7 8 8 10 11 9 9 12 17 18 16 14 14 14 13 13 13 13 13 13 13 13 13 14 15 14 14
22 22 22 22 22 23 23 24 23 20 15 12 9 7 8 9 7 8 11 11 9 9 12 16 17 14 13 15 15 13 13 13 13 13 13 13 13 13 14 15 14 14
23 22 23 22 22 23 23 23 24 22 19 17 14 10 8 8 7 7 9 11 10 10 12 13 12 11 13 15 16 15 13 12 12 13 13 13 14 14 14 15 14 13
23 23 23 23 23 23 23 23 23 22 21 21 20 17 12 9 7 6 6 8 10 11 11 11 6 5 8 12 14 15 15 13 12 13 13 13 14 14 14 14 13 13
24 24 24 24 24 23 23 22 22 22 21 20 19 18 16 13 11 9 6 6 8 9 9 10 8 8 9 11 14 16 16 15 13 12 12 13 13 13 13 13 13 13
23 24 24 24 24 24 23 23 23 22 20 19 17 17 17 16 15 13 10 8 6 6 7 8 7 11 12 12 14 16 17 17 15 12 12 13 13 13 13 12 13 13
23 23 24 24 24 24 24 23 23 22 20 19 18 18 17 16 15 14 13 12 10 7 6 7 6 9 11 12 14 16 17 18 17 14 13 13 13 13 13 12 13 13
23 23 24 24 24 24 24 24 23 23 21 19 18 17 18 17 16 15 14 14 15 12 9 8 9 9 10 12 14 16 17 17 17 16 15 13 13 13 13 12 12 12
22 23 24 24 24 24 24 23 23 22 21 21 19 18 18 18 17 17 17 16 16 16 14 12 12 12 11 10 11 13 15 15 15 17 16 13 13 13 12 11 12 13
21 22 23 23 24 24 23 23 22 22 21 21 20 19 19 18 17 17 18 18 17 17 17 14 12 13 13 11 9 9 12 12 12 16 15 11 10 11 10 9 14 17
21 21 21 22 22 22 22 22 21 21 21 20 19 19 19 19 18 18 17 18 18 18 19 18 16 15 14 12 11 9 10 9 9 11 11 10 9 10 9 7 11 18
21 21 20 21 22 21 21 22 21 21 20 20 19 19 19 18 19 19 18 18 18 18 19 22 22 19 16 14 11 10 9 8 7 5 5 5 6 7 7 7 7 13